STARLINK-4025 (52696 NORAD) Tracking and Keplerian Element Data
This shows tracking and keplerian element data for the satellite.
Feedback or suggestion? Click here.
Element | Value |
Catalog | 52696 |
Name | STARLINK-4025 |
Epoch Orbit | 130 |
Epoch Day | 192.91667824 |
Epoch Year | 2022 |
RAAN | 28.8204 |
Inclination | 53.2164 |
Eccentricity | 0.0001737 |
Argument of Perigee | 35.3528 |
Mean Anonmoly | 105.9241 |
Mean Motion | 15.56858141 |
Decay Rate | -0.00022544 |
L1 | 1 52696U 22053AS 22192.91667824 -.00022544 00000+0 -30249-3 0 9998 |
L2 | 2 52696 53.2164 28.8204 0001737 35.3528 105.9241 15.56858141 1309 |
Live tracking and technical data element details for STARLINK-4025 (NORAD 52696). STARLINK-4025 can be tracked NOW for your location showing map with azimuth and elevation plus other details from your city location.
Track the satellite on the map from your city or location and see movement details for azimuth, elevation, latitude, longitude, range, height, and movement on the map or in text.
IsCatalogInMostPopularTable: catalog: 52696, numindb: 14
Update: records affected: 1
GetName: 52696 STARLINK-4025
Hit Count: updated at: Sun, 14 Aug 2022 00:46:41 GMT